This demonstration page uses our WeatherBlox Daily Observations layout. Learn more.

Hourly Observations for February 12, 2020

Temp ( °F °C ) Dew Point ( °F °C ) Humidity (%) Winds ( mph kmh ) Pressure ( in mb ) Visibility ( mi km ) Precip ( " mm )
12:54 am 00:54 Clear 29 -1.7 20 -6.7 69 69 S 12 19 30.02 1017 10 16.0934 0 0
1:54 am 01:54 Clear 30 -1.1 20 -6.7 66 66 SSW 8 13 30.01 1016 10 16.0934 0 0
2:54 am 02:54 Clear 28 -2.2 20 -6.7 72 72 S 12 19 29.98 1015 10 16.0934 0 0
3:54 am 03:54 Clear 24 -4.4 18 -7.8 77 77 S 8 13 29.96 1015 10 16.0934 0 0
4:54 am 04:54 Clear 30 -1.1 20 -6.7 66 66 SW 7 11 29.93 1013 10 16.0934 0 0
5:54 am 05:54 Clear 27 -2.8 20 -6.7 75 75 S 7 11 29.9 1013 10 16.0934 0 0
6:54 am 06:54 Clear 28 -2.2 21 -6.1 75 75 S 8 13 29.9 1013 10 16.0934 0 0
7:54 am 07:54 Sunny 30 -1.1 21 -6.1 69 69 S 10 17 29.91 1013 10 16.0934 0 0
8:54 am 08:54 Sunny 33 0.6 21 -6.1 61 61 SSW 12 19 29.92 1013 10 16.0934 0 0
9:54 am 09:54 Mostly Cloudy 35 1.7 21 -6.1 57 57 S 13 20 29.9 1012 10 16.0934 0 0
10:54 am 10:54 Cloudy 36 2.2 23 -5 59 59 SSW 13 20 29.9 1012 10 16.0934 0 0
11:54 am 11:54 Sunny 39 3.9 25 -3.9 57 57 SSW 15 24 29.88 1012 10 16.0934 0 0
12:54 pm 12:54 Cloudy 40 4.4 24 -4.4 53 53 WSW 14 22 29.88 1012 10 16.0934 0 0
1:54 pm 13:54 Cloudy 39 3.9 25 -3.9 57 57 W 7 11 29.86 1011 10 16.0934 0 0
2:54 pm 14:54 Cloudy 39 3.9 24 -4.4 55 55 W 13 20 29.87 1011 10 16.0934 0 0
3:54 pm 15:54 Cloudy 39 3.9 26 -3.3 60 60 NNW 24 39 29.9 1013 10 16.0934 0 0
4:10 pm 16:10 Windy with Snow Likely 36 2.2 26 -3.3 67 67 N 25 41 29.93 1013 7 11.26538 0.001 0.001
4:29 pm 16:29 Windy with Snow Likely 32 0 25 -3.9 75 75 N 28 44 29.97 1015 2 3.21868 0.001 0.001
4:31 pm 16:31 Windy with Snow Likely 31 -0.6 26 -3.3 82 82 NNW 25 41 29.97 1015 2 3.21868 0.001 0.001
4:54 pm 16:54 Windy with Snow Likely 28 -2.2 21 -6.1 75 75 NNW 32 52 29.98 1015 4 6.43736 0.001 0.001
5:54 pm 17:54 Windy with Snow Likely 20 -6.7 13 -10.6 74 74 N 32 52 30.05 1018 4 6.43736 0.001 0.001
6:05 pm 18:05 Windy with Snow Likely 19 -7.2 12 -11.1 74 74 NNW 32 52 30.13 1020 4 6.43736 0.001 0.001
6:16 pm 18:16 Windy with Snow Likely 18 -7.8 11 -11.7 74 74 N 26 43 30.14 1021 2.5 4.02335 0.001 0.001
6:36 pm 18:36 Windy with Snow Likely 18 -7.8 11 -11.7 74 74 N 31 50 30.16 1021 3 4.82802 0.001 0.001
6:47 pm 18:47 Windy with Snow Likely 18 -7.8 10 -12.2 71 71 N 28 44 30.18 1022 9 14.48406 0.001 0.001
6:54 pm 18:54 Windy with Snow Likely 17 -8.3 10 -12.2 74 74 N 30 48 30.13 1020 9 14.48406 0.001 0.001
7:54 pm 19:54 Cloudy 14 -10 2 -16.7 58 58 NNW 38 61 30.17 1022 10 16.0934 0.001 0.001
8:54 pm 20:54 Clear 10 -12.2 -2 -18.9 58 58 N 31 50 30.23 1024 10 16.0934 0 0
9:54 pm 21:54 Clear 7 -13.9 -5 -20.6 57 57 NNW 30 48 30.29 1026 10 16.0934 0 0
10:54 pm 22:54 Clear 5 -15 -8 -22.2 54 54 N 22 35 30.31 1027 10 16.0934 0 0
11:54 pm 23:54 Clear 3 -16.1 -8 -22.2 60 60 NNW 22 35 30.34 1027 10 16.0934 0 0

Powered by AerisWeather